Weather Roundup
Issued by NWS

Home | Current Version | Previous Version | Graphics & Text | Print | Product List | Glossary Off
Versions: 1 2 3 4 5 6 7 8 9 10 11 12 13 14 15 16 17 18 19 20 21 22 23 24 25 26 27 28 29 30 31 32 33 34 35 36 37 38 39 40 41 42 43 44 45 46 47 48 49 50

000
NZUS93 KARX 300059
HRRWXR

CURRENT HOURLY OBSERVATIONS ACROSS
MUCH OF THE UPPER MISSISSIPPI VALLEY
NATIONAL WEATHER SERVICE LA CROSSE WI
700 PM CST THU JAN 29 2015


...SOUTHEAST MINNESOTA...


CITY           SKY/WX    TMP DP  RH WIND       PRES   REMARKS
ROCHESTER      CLOUDY    24  16  71 NW22      30.36R WCI   9
ROCHESTER/MAYO CLOUDY    25  15  65 W17G25    30.37R WCI  12
WINONA         PTCLDY    30  19  64 NW15G24   30.38R WCI  19
AUSTIN         CLOUDY    25  18  74 NW13G21   30.39R WCI  13
ALBERT LEA     CLOUDY    25  18  74 NW13G20   30.41R WCI  13
DODGE CENTER   CLOUDY    25  18  74 NW21      30.38R WCI  10
PRESTON        CLOUDY    24  16  70 NW15G26   30.35R WCI  11
OWATONNA       MOCLDY    23  16  74 NW20G26   30.41R WCI   8
FARIBAULT      MOCLDY    25  16  68 NW16G24   30.42R WCI  12
$$

...ELSEWHERE IN MINNESOTA...


CITY           SKY/WX    TMP DP  RH WIND       PRES   REMARKS
MINNEAPOLIS    PTCLDY    23  10  57 NW17      30.44R WCI   9
INTNL FALLS    CLOUDY     5  -3  69 NW8       30.46R WCI  -8
DULUTH         MOCLDY    11   1  64 NW10      30.38R WCI  -3
RED WING       CLEAR     25  10  54 N9G18     30.41R WCI  15
REDWOOD FALLS  CLEAR     18  11  74 NW16G23   30.51R WCI   3
MANKATO        PTCLDY    21  12  68 NW18G28   30.45R WCI   6
WORTHINGTON    CLOUDY    21  16  79 N17       30.48R WCI   7
FAIRMONT       PTCLDY    21  12  68 NW17G25   30.44R WCI   7
$$

...SOUTHWEST WISCONSIN...


CITY           SKY/WX    TMP DP  RH WIND       PRES   REMARKS
LA CROSSE      CLOUDY    29  16  58 NW17G30   30.33R WCI  17
PRAIRIE DU CHI CLOUDY    31  19  62 NW14G26   30.30R WCI  21
BOSCOBEL       CLOUDY    32  20  61 NW10G21   30.30R WCI  24
LONE ROCK      NOT AVBL
PLATTEVILLE    CLOUDY    32  24  72 W17G24    30.24R WCI  21
FORT MC COY    CLOUDY    29  17  62 NW13G21   30.30R WCI  18
CAMP DOUGLAS   MIX PCPN  28  21  74 NW15G23   30.25R WCI  17
VIROQUA        CLOUDY    27  18  71 NW18G25   30.26R WCI  13
WIS DELLS      NOT AVBL
$$

...ELSEWHERE IN WISCONSIN...


CITY           SKY/WX    TMP DP  RH WIND       PRES   REMARKS
MILWAUKEE      CLOUDY    35  18  49 NW16G22   30.16R WCI  25
MADISON        CLOUDY    32  19  58 NW10G18   30.21R WCI  24
GREEN BAY      LGT SNOW  27  17  66 N20G25    30.21R WCI  13
EAU CLAIRE     CLOUDY    23  12  62 NW13G23   30.36R WCI  11
BLACK RVR FLS  CLOUDY    29  15  56 NW13G22   30.29R WCI  18
MEDFORD        FLURRIES  21  12  68 N18G26    30.23R WCI   7
WAUSAU         CLOUDY    24  12  60 N14G25    30.22R WCI  12
WIS RAPIDS     CLOUDY    27  15  61 NW15G24   30.26R WCI  15
MARSHFIELD     CLOUDY    25  13  60 NW18      30.25R WCI  11
RICE LAKE      CLOUDY    20  10  64 NW16G26   30.37R WCI   6
$$

...NORTHEAST IOWA...


CITY           SKY/WX    TMP DP  RH WIND       PRES   REMARKS
DECORAH        CLOUDY    27  18  69 NW20G28   30.31R WCI  13
MASON CITY     CLOUDY    24  17  74 NW24G31   30.43R WCI   8
CHARLES CITY   CLOUDY    27  19  74 NW21G35   30.38R WCI  13
OELWEIN        CLOUDY    28  21  74 NW25      30.35R WCI  14
$$

...ELSEWHERE IN IOWA...


CITY           SKY/WX    TMP DP  RH WIND       PRES   REMARKS
DES MOINES     CLOUDY    32  21  64 N14G21    30.45R WCI  22
IOWA CITY      CLOUDY    33  24  69 NW15G22   30.37R WCI  23
FORT DODGE     CLOUDY    27  19  74 NW12G24   30.46R WCI  16
$$

...NORTHERN ILLINOIS...


CITY           SKY/WX    TMP DP  RH WIND       PRES   REMARKS
CHICAGO-OHARE  CLOUDY    34  23  64 NW15      30.18R WCI  24
CHICAGO-MIDWAY CLOUDY    36  25  64 NW21G26   30.19R WCI  25
MOLINE         CLOUDY    34  24  67 NW17G25   30.30R WCI  23
ROCKFORD       CLOUDY    34  21  59 NW13      30.24R WCI  25
PEORIA         CLOUDY    35  27  72 NW9G24    30.30R WCI  28
$$

NOTE: "FAIR" INDICATES FEW OR NO CLOUDS BELOW 12,000 FEET WITH NO
SIGNIFICANT WEATHER AND/OR OBSTRUCTIONS TO VISIBILITY. WIND
SPEEDS ARE IN MILES-PER-HOUR.



USA.gov is the U.S. government's official web portal to all federal, state and local government web resources and services.